This is the latest recevied weather packets stored in our database for station/object KD8JAM. If no packets are shown the sender has not sent any weather packets the latest 10 day(s).
| Time | Temp. | Humidity | Pressure | Rain* | Wind** | Luminosity | Snow |
|---|---|---|---|---|---|---|---|
| 1777854117 | 10.56° C | 46% | 1002.6 hPa | 0 mm | - | 22 W/m² | - |
| 1777853815 | 11.11° C | 46% | 1002.3 hPa | 0 mm | - | 26 W/m² | - |
| 1777853511 | 11.11° C | 46% | 1002.6 hPa | 0 mm | - | 30 W/m² | - |
| 1777853208 | 11.67° C | 45% | 1002.5 hPa | 0 mm | - | 33 W/m² | - |
| 1777852905 | 11.67° C | 44% | 1002.5 hPa | 0 mm | - | 35 W/m² | - |
| 1777852603 | 11.67° C | 44% | 1002.7 hPa | 0 mm | - | 46 W/m² | - |
| 1777852300 | 12.22° C | 43% | 1002.8 hPa | 0 mm | - | 44 W/m² | - |
| 1777851998 | 12.22° C | 42% | 1002.4 hPa | 0 mm | - | 48 W/m² | - |
| 1777851696 | 12.22° C | 42% | 1002.7 hPa | 0 mm | - | 50 W/m² | - |
| 1777851392 | 12.78° C | 41% | 1002.5 hPa | 0 mm | - | 60 W/m² | - |
| 1777851088 | 12.78° C | 40% | 1002.3 hPa | 0 mm | - | 55 W/m² | - |
| 1777850785 | 13.33° C | 40% | 1002.4 hPa | 0 mm | - | 73 W/m² | - |
| 1777850482 | 13.33° C | 39% | 1002.5 hPa | 0 mm | - | 75 W/m² | - |
| 1777850180 | 13.33° C | 40% | 1002.4 hPa | 0 mm | - | 75 W/m² | - |
| 1777849877 | 13.33° C | 39% | 1002.6 hPa | 0 mm | - | 134 W/m² | - |
| 1777849574 | 13.89° C | 40% | 1002.4 hPa | 0 mm | - | 184 W/m² | - |
| 1777849271 | 13.33° C | 40% | 1002.5 hPa | 0 mm | - | 242 W/m² | - |
| 1777848969 | 13.33° C | 40% | 1002.4 hPa | 0 mm | - | 252 W/m² | - |
| 1777848668 | 12.78° C | 43% | 1002.6 hPa | 0 mm | - | 121 W/m² | - |
| 1777848366 | 12.78° C | 43% | 1002.4 hPa | 0 mm | - | 150 W/m² | - |
| 1777848063 | 12.78° C | 45% | 1002.5 hPa | 0 mm | - | 173 W/m² | - |
| 1777847761 | 12.22° C | 45% | 1002.8 hPa | 0 mm | - | 178 W/m² | - |
| 1777847457 | 12.22° C | 46% | 1002.5 hPa | 0 mm | - | 178 W/m² | - |
| 1777847155 | 12.22° C | 46% | 1002.5 hPa | 0 mm | - | 167 W/m² | - |
| 1777846852 | 12.22° C | 46% | 1002.6 hPa | 0 mm | - | 169 W/m² | - |
* Rain latest hour (hover to see other rain measurements)
** Current wind speed in m/s (hover to see current wind gust speed)